Zurück zum Katalog

STARLINK-3156

AktivKommunikationVLEO
NORAD 49458·PAYLOAD·🇺🇸 United States

Gestartet Nov 13, 2021 von Cape Canaveral Space Force Station

Loading…

Nächste Überflüge (nächste 24 Stunden)

TLE

AktuellSource: CelesTrak SupGP

Epoche: Sep 14, 2026, 21:48 UTC

1 49458C 21104BC  26257.90881944  .00042810  00000+0  12994-2 0  2571
2 49458  53.1576  77.9427 0001226  83.4172 200.4127 15.33519072    14

Verfolge STARLINK-3156 in Echtzeit mit AllMySat

Download on the App Store